Regional Weather Roundup
Issued by NWS

Home | Current Version | Previous Version | Text Only | Print | Product List | Glossary Off
Versions: 1 2 3 4 5 6 7 8 9 10 11 12 13 14 15 16 17 18 19 20 21 22 23 24 25 26 27 28 29 30 31 32 33 34 35 36 37 38 39 40 41 42 43 44 45 46 47 48 49 50

000
ASUS45 KTFX 150310
RWRMT
MONTANA REGIONAL WEATHER ROUNDUP
NATIONAL WEATHER SERVICE GREAT FALLS MT
800 PM MST THU DEC 14 2017

NOTE: "FAIR" INDICATES FEW OR NO CLOUDS BELOW 12000 FEET WITH NO
SIGNIFICANT WEATHER AND/OR OBSTRUCTIONS TO VISIBILITY.

MTZ001>007-043-150400-
WEST OF THE DIVIDE

CITY           SKY/WX    TMP DP  RH WIND       PRES   REMARKS
KALISPELL      CLOUDY    28  27  96 CALM      30.36F
MISSOULA       FAIR      25  22  88 CALM      30.36R
BUTTE          FAIR      12   8  84 SE3       30.27S
MULLAN PASS    FAIR      26  22  84 SW8       30.24F WCI  18
ANACONDA         N/A     19  18  93 CALM      30.28F VSB 3/4
DEER LODGE       N/A     18  18 100 CALM      30.32F
EUREKA           N/A     25  21  86 MISG      30.38F
HAMILTON         N/A     21  19  93 SE5       30.34F
LIBBY            N/A     28  25  86 CALM      30.37F
RONAN            N/A     29  24  81 CALM      30.37S
$$

MTZ008-052>055-150400-
SOUTHWEST MONTANA

CITY           SKY/WX    TMP DP  RH WIND       PRES   REMARKS
BOZEMAN        FOG       11   9  92 S3        30.27F VSB 1/4
DILLON         FAIR      18  13  80 CALM      30.27F
W YELLOWSTONE  FAIR      12  10  92 SW5       30.33R
ENNIS          CLOUDY    25  16  68 SE7       30.29F WCI  17
THREE FORKS      N/A     11   7  84 CALM      30.23F VSB 0
$$

MTZ009-010-012-014-046-048-049-054-150400-
EAST SLOPES AND CENTRAL MONTANA

CITY           SKY/WX    TMP DP  RH WIND       PRES   REMARKS
CUT BANK       FAIR      36  18  48 W12       30.01F WCI  28
GREAT FALLS    FAIR      35  19  52 SW18      30.08F WCI  24
MALMSTROM AFB  FAIR      33  21  60 SW17G25   30.08F WCI  22
HELENA         CLOUDY    19  17  92 E3        30.25F
BOWMANS CRNR   FAIR      28  21  75 S20       30.09F WCI  14
CHOTEAU          N/A     45  14  29 W17G25    30.05S
FAIRFIELD      FAIR      32  19  58 S10       30.06F WCI  23
POWER          FAIR      32  19  59 SW12      30.06F WCI  23
RAYNESFORD     FAIR      43  16  34 SW22      30.06F
ULM            FAIR      33  20  59 S8        30.10F WCI  26
$$

MTZ011-013-016-021-045-047-050-051-150400-
NORTH CENTRAL MONTANA

CITY           SKY/WX    TMP DP  RH WIND       PRES   REMARKS
HAVRE          FAIR      30  22  72 SW16      30.01F WCI  19
LEWISTOWN      FAIR      35  18  49 CALM      30.06F
N BAR RANCH    FAIR      32  10  40 W8G15     30.08F WCI  25
CHINOOK          N/A     25  21  86 E5        30.02F
DENTON         MOCLDY    28  19  71 MISG      30.02F
GEYSER         MOCLDY    40  17  39 W10       30.05F
GRASS RANGE    FAIR      35  18  50 SW7       30.02F WCI  29
STANFORD       FAIR      34  17  49 CALM      30.06F
WINIFRED       FAIR      36  20  52 W9        30.04F WCI  29
$$

MTZ017>020-022>027-061-062-150400-
NORTHEAST MONTANA

CITY           SKY/WX    TMP DP  RH WIND       PRES   REMARKS
GLASGOW        FAIR      26  21  81 SW3       30.04F
GLENDIVE       FAIR      23  19  85 W6        30.07F WCI  16
JORDAN           N/A     19  14  81 W7        30.06F WCI  10
SIDNEY         MOCLDY    28  23  81 NW9       30.05F WCI  19
WOLF POINT     FAIR      20  15  81 SW5       30.07F
MALTA          CLEAR     21  19  93 W7        30.04F WCI  13
PLENTYWOOD       N/A     27  21  80 CALM      30.03F
POPLAR           N/A     25  18  74 W3        30.07F
$$

MTZ028>42-056>058-150400-
SOUTHCENTRAL AND SOUTHEAST MONTANA

CITY           SKY/WX    TMP DP  RH WIND       PRES   REMARKS
BAKER          FAIR      23  19  85 W9        30.08F WCI  13
BILLINGS       FAIR      39  19  44 SW15      30.10F WCI  31
LIVINGSTON     FAIR      37  22  54 W29G36    30.16F WCI  25
MILES CITY     FAIR      27  21  78 SW7       30.09F WCI  19
BIG TIMBER     CLEAR     37  18  44 SW30G37   30.12S WCI  25
FORSYTH          N/A     30  23  74 CALM      30.08F
LAUREL           N/A     36  19  51 W10       30.12F WCI  28
$$

REGIONAL REPORTS...DAKOTAS

CITY           SKY/WX    TMP DP  RH WIND       PRES   REMARKS
WILLISTON      FAIR      25  21  85 W6        30.05F WCI  18
MINOT          CLOUDY    32  23  69 NW14      30.00F WCI  22
DICKINSON      FAIR      22  18  85 W9        30.03F WCI  12
BEACH          FAIR      23  21  93 W8        30.09F WCI  14
CROSBY         CLOUDY    25  23  93 W7        30.04S WCI  17
TIOGA          CLOUDY    28  28 100 NW10      30.03F WCI  19
WATFORD CITY   FAIR      27  23  86 W5        30.04F
BISMARCK       CLOUDY    34  25  69 W7        30.05F WCI  28
GRAND FORKS    CLOUDY    20  17  88 CALM      30.03F
FARGO          CLOUDY    24  21  88 E5        30.01F
BUFFALO SD       N/A     20  16  84 W9        30.03F WCI   9
RAPID CITY     FAIR      24  15  68 CALM      30.14F
$$

REGIONAL REPORTS...WYOMING/IDAHO/WASHINGTON

CITY           SKY/WX    TMP DP  RH WIND       PRES   REMARKS
GILLETTE       FAIR      26  18  71 SW6       30.13F WCI  19
SHERIDAN       FAIR      19  16  88 CALM      30.11F
BUFFALO WY     FAIR      30  15  53 S12       30.13F WCI  20
CODY           FAIR      23  16  74 SW3       30.15F
YELLOWSTONE LA   N/A      8   6  92 CALM      30.32R
IDAHO FALLS    FOG       22  20  92 E5        30.44R VSB 1/2
SALMON         CLOUDY    28  24  85 CALM      30.43R
BOISE          CLOUDY    27  23  85 SE5       30.49R
SPOKANE        CLOUDY    30  29  96 CALM      30.38F
$$

REGIONAL REPORTS...ALBERTA

CITY           SKY/WX    TMP DP  RH WIND       PRES   REMARKS
EDMONTON       PTCLDY    36  23  60 SW8       29.82F WCI  29
CALGARY        PTCLDY    39  18  41 SW6       29.92F
LETHBRIDGE     CLEAR     41  19  42 W17       29.97F
MEDICINE HAT   PTCLDY    34  25  69 SW16      29.94F WCI  23
$$

REGIONAL REPORTS...SASKATCHEWAN

CITY           SKY/WX    TMP DP  RH WIND       PRES   REMARKS
SWIFT CURRENT  CLOUDY    28  23  80 SW12      29.94F WCI  18
REGINA         MOCLDY    21  19  93 W5        29.98F
SASKATOON      CLOUDY    28  25  86 S8        29.93F WCI  20
$$



USA.gov is the U.S. government's official web portal to all federal, state and local government web resources and services.